Volver al catálogo

STARLINK-30372

ActivoComunicacionesVLEO
NORAD 57789·PAYLOAD·🇺🇸 United States

Lanzado Sep 4, 2023 desde Cape Canaveral Space Force Station

Loading…

Próximos Pases (próximas 24 horas)

TLE

ActualizadoSource: CelesTrak SupGP

Época: Sep 14, 2026, 21:23 UTC

1 57789C 23134U   26257.89145833  .00008969  00000+0  32491-3 0  2572
2 57789  43.0001  89.8626 0001350 271.0826 112.0256 15.27568793    11

Sigue STARLINK-30372 en tiempo real con AllMySat

Download on the App Store